This is the latest recevied weather packets stored in our database for station/object KC1HBM. If no packets are shown the sender has not sent any weather packets the latest 10 day(s).
| Time | Temp. | Humidity | Pressure | Rain* | Wind** | Luminosity | Snow |
|---|---|---|---|---|---|---|---|
| 1778032316 | 13.89° C | 80% | 1006.1 hPa | 0 mm | - | 0 W/m² | - |
| 1778032013 | 13.89° C | 80% | 1006.2 hPa | 0 mm | - | 0 W/m² | - |
| 1778031709 | 14.44° C | 79% | 1006.4 hPa | 0 mm | - | 0 W/m² | - |
| 1778031407 | 14.44° C | 79% | 1006.1 hPa | 0 mm | - | 0 W/m² | - |
| 1778031103 | 14.44° C | 78% | 1006 hPa | 0 mm | - | 0 W/m² | - |
| 1778030800 | 14.44° C | 78% | 1006.4 hPa | 0 mm | - | 0 W/m² | - |
| 1778030496 | 14.44° C | 78% | 1006.2 hPa | 0 mm | - | 0 W/m² | - |
| 1778030194 | 15° C | 78% | 1006.2 hPa | 0 mm | - | 0 W/m² | - |
| 1778029890 | 15° C | 77% | 1005.8 hPa | 0 mm | - | 0 W/m² | - |
| 1778029589 | 15° C | 77% | 1005.9 hPa | 0 mm | - | 0 W/m² | - |
| 1778029286 | 15° C | 77% | 1005.8 hPa | 0 mm | - | 0 W/m² | - |
| 1778028982 | 15.56° C | 76% | 1005.7 hPa | 0 mm | - | 0 W/m² | - |
| 1778028679 | 16.11° C | 75% | 1005.9 hPa | 0 mm | - | 0 W/m² | - |
| 1778028376 | 16.11° C | 73% | 1005.8 hPa | 0 mm | - | 0 W/m² | - |
| 1778028073 | 16.11° C | 73% | 1005.6 hPa | 0 mm | - | 0 W/m² | - |
| 1778027769 | 16.11° C | 73% | 1005.6 hPa | 0 mm | - | 0 W/m² | - |
| 1778027465 | 16.11° C | 73% | 1005.6 hPa | 0 mm | - | 0 W/m² | - |
| 1778027161 | 16.67° C | 73% | 1005.5 hPa | 0 mm | - | 0 W/m² | - |
| 1778026857 | 16.67° C | 71% | 1005.5 hPa | 0 mm | - | 0 W/m² | - |
| 1778026554 | 16.67° C | 71% | 1005.4 hPa | 0 mm | - | 0 W/m² | - |
| 1778026251 | 17.22° C | 70% | 1005.2 hPa | 0 mm | - | 0 W/m² | - |
| 1778025948 | 17.22° C | 70% | 1005 hPa | 0 mm | - | 0 W/m² | - |
| 1778025645 | 17.22° C | 71% | 1004.7 hPa | 0 mm | - | 0 W/m² | - |
| 1778025343 | 16.67° C | 72% | 1004.4 hPa | 0 mm | - | 0 W/m² | - |
| 1778025040 | 16.67° C | 73% | 1004.3 hPa | 0 mm | - | 0 W/m² | - |
* Rain latest hour (hover to see other rain measurements)
** Current wind speed in m/s (hover to see current wind gust speed)